User: anonymous   Login
Location: Lawrence
(38.9720°N, 95.2350°W)
Time: 05:23:43
(UTC-05:00)
Language:

ALOS - Orbit

View from above orbital plane
View from above orbital plane
View from above satellite
View from above satellite

Ground track
Ground track

The orbit data is extracted from the following two-line orbital elements,

1 28931U 06002A   15245.96288080 +.00000185 +00000-0 +45787-4 0  9998
2 28931 097.9265 292.2291 0001092 137.2554 222.8734 14.61955695512006
Epoch (UTC): 02 September 2015 23:06:32
Eccentricity: 0.0001092
inclination: 97.9265°
perigee height: 686 km
apogee height: 687 km
right ascension of ascending node: 292.2291°
argument of perigee: 137.2554°
revolutions per day: 14.61955695
mean anomaly at epoch: 222.8734°
orbit number at epoch: 51200

The dashed part of the orbit path shows where the satellite is in the earth's shadow,  

DLR